Terminal Aerodrome Forecast
Issued by NWS

Home | Current Version | Previous Version | Text Only | Print | Product List | Glossary On
Versions: 1 2 3 4 5 6 7 8 9 10 11 12 13 14 15 16
000
FTAK31 PAJN 162300
TAFAKT
TAF
PAKT 162320Z 1700/1724 32010KT P6SM FEW020 SCT200
     FM170300 VRB03KT P6SM BKN080
     FM171000 00000KT P6SM VCFG SCT005 OVC070
     FM171500 19005KT 4SM BR VCSH BKN005 OVC050
     FM172000 14009KT P6SM SCT010 BKN050
      AMD LTD TO CLD VIS AND WIND 1706/1715=

USA.gov is the U.S. government's official web portal to all federal, state and local government web resources and services.